<?xml version="1.0"?>
<gpx xmlns="http://www.topografix.com/GPX/1/1" xmlns:xsi="http://www.w3.org/2001/XMLSchema-instance" version="1.1" creator="GPX RubyGem 1.0.0 -- http://dougfales.github.io/gpx/" xsi:schemaLocation="http://www.topografix.com/GPX/1/1 http://www.topografix.com/GPX/1/1/gpx.xsd">
  <metadata>
    <name/>
    <time>2026-05-08T15:04:25+00:00</time>
    <bound minlat="90.0" minlon="180.0" maxlat="-90.0" maxlon="-180.0"/>
  </metadata>
  <trk>
    <name/>
    <trkseg>
      <trkpt lat="43.73448" lon="7.429692">
        <time>1970-01-01T00:00:00+00:00</time>
        <ele>0.0</ele>
      </trkpt>
      <trkpt lat="43.734346" lon="7.429731">
        <time>1970-01-01T00:00:00+00:00</time>
        <ele>0.0</ele>
      </trkpt>
      <trkpt lat="43.733251" lon="7.428494">
        <time>1970-01-01T00:00:00+00:00</time>
        <ele>1.0</ele>
      </trkpt>
      <trkpt lat="43.733255" lon="7.428225">
        <time>1970-01-01T00:00:00+00:00</time>
        <ele>5.0</ele>
      </trkpt>
      <trkpt lat="43.733265" lon="7.428102">
        <time>1970-01-01T00:00:00+00:00</time>
        <ele>7.0</ele>
      </trkpt>
      <trkpt lat="43.733278" lon="7.428101">
        <time>1970-01-01T00:00:00+00:00</time>
        <ele>7.0</ele>
      </trkpt>
      <trkpt lat="43.73329" lon="7.42804">
        <time>1970-01-01T00:00:00+00:00</time>
        <ele>8.0</ele>
      </trkpt>
      <trkpt lat="43.733342" lon="7.427966">
        <time>1970-01-01T00:00:00+00:00</time>
        <ele>7.0</ele>
      </trkpt>
      <trkpt lat="43.733366" lon="7.427856">
        <time>1970-01-01T00:00:00+00:00</time>
        <ele>8.0</ele>
      </trkpt>
      <trkpt lat="43.733578" lon="7.427768">
        <time>1970-01-01T00:00:00+00:00</time>
        <ele>3.0</ele>
      </trkpt>
      <trkpt lat="43.733595" lon="7.427711">
        <time>1970-01-01T00:00:00+00:00</time>
        <ele>4.0</ele>
      </trkpt>
      <trkpt lat="43.733521" lon="7.427337">
        <time>1970-01-01T00:00:00+00:00</time>
        <ele>6.0</ele>
      </trkpt>
      <trkpt lat="43.733465" lon="7.427075">
        <time>1970-01-01T00:00:00+00:00</time>
        <ele>3.0</ele>
      </trkpt>
      <trkpt lat="43.733409" lon="7.427026">
        <time>1970-01-01T00:00:00+00:00</time>
        <ele>2.0</ele>
      </trkpt>
      <trkpt lat="43.733163" lon="7.425854">
        <time>1970-01-01T00:00:00+00:00</time>
        <ele>2.0</ele>
      </trkpt>
      <trkpt lat="43.733076" lon="7.425357">
        <time>1970-01-01T00:00:00+00:00</time>
        <ele>2.0</ele>
      </trkpt>
      <trkpt lat="43.733104" lon="7.425311">
        <time>1970-01-01T00:00:00+00:00</time>
        <ele>2.0</ele>
      </trkpt>
      <trkpt lat="43.733058" lon="7.425087">
        <time>1970-01-01T00:00:00+00:00</time>
        <ele>2.0</ele>
      </trkpt>
      <trkpt lat="43.732949" lon="7.42456">
        <time>1970-01-01T00:00:00+00:00</time>
        <ele>2.0</ele>
      </trkpt>
      <trkpt lat="43.732733" lon="7.423526">
        <time>1970-01-01T00:00:00+00:00</time>
        <ele>2.0</ele>
      </trkpt>
      <trkpt lat="43.732728" lon="7.423495">
        <time>1970-01-01T00:00:00+00:00</time>
        <ele>2.0</ele>
      </trkpt>
      <trkpt lat="43.732743" lon="7.423486">
        <time>1970-01-01T00:00:00+00:00</time>
        <ele>2.0</ele>
      </trkpt>
      <trkpt lat="43.733072" lon="7.423352">
        <time>1970-01-01T00:00:00+00:00</time>
        <ele>0.0</ele>
      </trkpt>
      <trkpt lat="43.733155" lon="7.42315">
        <time>1970-01-01T00:00:00+00:00</time>
        <ele>0.0</ele>
      </trkpt>
      <trkpt lat="43.733258" lon="7.422985">
        <time>1970-01-01T00:00:00+00:00</time>
        <ele>0.0</ele>
      </trkpt>
      <trkpt lat="43.733428" lon="7.422809">
        <time>1970-01-01T00:00:00+00:00</time>
        <ele>0.0</ele>
      </trkpt>
      <trkpt lat="43.733606" lon="7.422703">
        <time>1970-01-01T00:00:00+00:00</time>
        <ele>0.0</ele>
      </trkpt>
      <trkpt lat="43.734184" lon="7.422529">
        <time>1970-01-01T00:00:00+00:00</time>
        <ele>0.0</ele>
      </trkpt>
      <trkpt lat="43.734458" lon="7.422455">
        <time>1970-01-01T00:00:00+00:00</time>
        <ele>0.0</ele>
      </trkpt>
      <trkpt lat="43.734612" lon="7.422455">
        <time>1970-01-01T00:00:00+00:00</time>
        <ele>0.0</ele>
      </trkpt>
      <trkpt lat="43.734671" lon="7.422443">
        <time>1970-01-01T00:00:00+00:00</time>
        <ele>1.0</ele>
      </trkpt>
      <trkpt lat="43.734698" lon="7.422318">
        <time>1970-01-01T00:00:00+00:00</time>
        <ele>1.0</ele>
      </trkpt>
      <trkpt lat="43.734948" lon="7.422256">
        <time>1970-01-01T00:00:00+00:00</time>
        <ele>0.0</ele>
      </trkpt>
      <trkpt lat="43.735062" lon="7.422161">
        <time>1970-01-01T00:00:00+00:00</time>
        <ele>1.0</ele>
      </trkpt>
      <trkpt lat="43.735275" lon="7.421868">
        <time>1970-01-01T00:00:00+00:00</time>
        <ele>1.0</ele>
      </trkpt>
      <trkpt lat="43.735383" lon="7.421808">
        <time>1970-01-01T00:00:00+00:00</time>
        <ele>1.0</ele>
      </trkpt>
      <trkpt lat="43.735512" lon="7.421792">
        <time>1970-01-01T00:00:00+00:00</time>
        <ele>1.0</ele>
      </trkpt>
      <trkpt lat="43.735817" lon="7.421753">
        <time>1970-01-01T00:00:00+00:00</time>
        <ele>1.0</ele>
      </trkpt>
      <trkpt lat="43.73596" lon="7.421761">
        <time>1970-01-01T00:00:00+00:00</time>
        <ele>1.0</ele>
      </trkpt>
      <trkpt lat="43.73617" lon="7.421806">
        <time>1970-01-01T00:00:00+00:00</time>
        <ele>0.0</ele>
      </trkpt>
      <trkpt lat="43.736389" lon="7.421901">
        <time>1970-01-01T00:00:00+00:00</time>
        <ele>0.0</ele>
      </trkpt>
      <trkpt lat="43.736549" lon="7.421999">
        <time>1970-01-01T00:00:00+00:00</time>
        <ele>0.0</ele>
      </trkpt>
      <trkpt lat="43.73674" lon="7.422167">
        <time>1970-01-01T00:00:00+00:00</time>
        <ele>0.0</ele>
      </trkpt>
      <trkpt lat="43.736765" lon="7.422115">
        <time>1970-01-01T00:00:00+00:00</time>
        <ele>1.0</ele>
      </trkpt>
      <trkpt lat="43.73675" lon="7.422055">
        <time>1970-01-01T00:00:00+00:00</time>
        <ele>1.0</ele>
      </trkpt>
      <trkpt lat="43.736798" lon="7.422013">
        <time>1970-01-01T00:00:00+00:00</time>
        <ele>2.0</ele>
      </trkpt>
      <trkpt lat="43.736817" lon="7.421996">
        <time>1970-01-01T00:00:00+00:00</time>
        <ele>2.0</ele>
      </trkpt>
      <trkpt lat="43.736936" lon="7.421969">
        <time>1970-01-01T00:00:00+00:00</time>
        <ele>5.0</ele>
      </trkpt>
      <trkpt lat="43.736945" lon="7.422028">
        <time>1970-01-01T00:00:00+00:00</time>
        <ele>5.0</ele>
      </trkpt>
      <trkpt lat="43.736956" lon="7.422095">
        <time>1970-01-01T00:00:00+00:00</time>
        <ele>5.0</ele>
      </trkpt>
      <trkpt lat="43.736973" lon="7.422093">
        <time>1970-01-01T00:00:00+00:00</time>
        <ele>5.0</ele>
      </trkpt>
      <trkpt lat="43.737056" lon="7.422849">
        <time>1970-01-01T00:00:00+00:00</time>
        <ele>3.0</ele>
      </trkpt>
      <trkpt lat="43.737193" lon="7.423521">
        <time>1970-01-01T00:00:00+00:00</time>
        <ele>5.0</ele>
      </trkpt>
      <trkpt lat="43.737333" lon="7.424233">
        <time>1970-01-01T00:00:00+00:00</time>
        <ele>10.0</ele>
      </trkpt>
      <trkpt lat="43.737397" lon="7.424866">
        <time>1970-01-01T00:00:00+00:00</time>
        <ele>15.0</ele>
      </trkpt>
      <trkpt lat="43.737438" lon="7.425084">
        <time>1970-01-01T00:00:00+00:00</time>
        <ele>15.0</ele>
      </trkpt>
      <trkpt lat="43.737449" lon="7.42512">
        <time>1970-01-01T00:00:00+00:00</time>
        <ele>16.0</ele>
      </trkpt>
      <trkpt lat="43.737519" lon="7.425303">
        <time>1970-01-01T00:00:00+00:00</time>
        <ele>19.0</ele>
      </trkpt>
      <trkpt lat="43.737546" lon="7.425392">
        <time>1970-01-01T00:00:00+00:00</time>
        <ele>21.0</ele>
      </trkpt>
      <trkpt lat="43.737529" lon="7.425436">
        <time>1970-01-01T00:00:00+00:00</time>
        <ele>19.0</ele>
      </trkpt>
      <trkpt lat="43.737532" lon="7.425553">
        <time>1970-01-01T00:00:00+00:00</time>
        <ele>19.0</ele>
      </trkpt>
      <trkpt lat="43.737583" lon="7.42573">
        <time>1970-01-01T00:00:00+00:00</time>
        <ele>22.0</ele>
      </trkpt>
      <trkpt lat="43.737614" lon="7.426158">
        <time>1970-01-01T00:00:00+00:00</time>
        <ele>24.0</ele>
      </trkpt>
      <trkpt lat="43.737622" lon="7.426265">
        <time>1970-01-01T00:00:00+00:00</time>
        <ele>24.0</ele>
      </trkpt>
      <trkpt lat="43.737695" lon="7.426486">
        <time>1970-01-01T00:00:00+00:00</time>
        <ele>28.0</ele>
      </trkpt>
      <trkpt lat="43.737719" lon="7.426522">
        <time>1970-01-01T00:00:00+00:00</time>
        <ele>29.0</ele>
      </trkpt>
      <trkpt lat="43.737766" lon="7.426656">
        <time>1970-01-01T00:00:00+00:00</time>
        <ele>30.0</ele>
      </trkpt>
      <trkpt lat="43.737759" lon="7.42677">
        <time>1970-01-01T00:00:00+00:00</time>
        <ele>28.0</ele>
      </trkpt>
      <trkpt lat="43.737735" lon="7.426927">
        <time>1970-01-01T00:00:00+00:00</time>
        <ele>22.0</ele>
      </trkpt>
      <trkpt lat="43.737749" lon="7.426981">
        <time>1970-01-01T00:00:00+00:00</time>
        <ele>22.0</ele>
      </trkpt>
      <trkpt lat="43.737801" lon="7.427161">
        <time>1970-01-01T00:00:00+00:00</time>
        <ele>22.0</ele>
      </trkpt>
      <trkpt lat="43.737817" lon="7.427283">
        <time>1970-01-01T00:00:00+00:00</time>
        <ele>20.0</ele>
      </trkpt>
      <trkpt lat="43.737987" lon="7.42774">
        <time>1970-01-01T00:00:00+00:00</time>
        <ele>20.0</ele>
      </trkpt>
      <trkpt lat="43.738123" lon="7.427936">
        <time>1970-01-01T00:00:00+00:00</time>
        <ele>27.0</ele>
      </trkpt>
      <trkpt lat="43.738189" lon="7.428093">
        <time>1970-01-01T00:00:00+00:00</time>
        <ele>30.0</ele>
      </trkpt>
      <trkpt lat="43.737912" lon="7.428292">
        <time>1970-01-01T00:00:00+00:00</time>
        <ele>20.0</ele>
      </trkpt>
      <trkpt lat="43.737902" lon="7.428408">
        <time>1970-01-01T00:00:00+00:00</time>
        <ele>19.0</ele>
      </trkpt>
      <trkpt lat="43.737866" lon="7.428448">
        <time>1970-01-01T00:00:00+00:00</time>
        <ele>17.0</ele>
      </trkpt>
      <trkpt lat="43.737841" lon="7.428841">
        <time>1970-01-01T00:00:00+00:00</time>
        <ele>11.0</ele>
      </trkpt>
      <trkpt lat="43.737841" lon="7.428841">
        <time>1970-01-01T00:00:00+00:00</time>
        <ele>11.0</ele>
      </trkpt>
      <trkpt lat="43.737866" lon="7.428448">
        <time>1970-01-01T00:00:00+00:00</time>
        <ele>17.0</ele>
      </trkpt>
      <trkpt lat="43.737902" lon="7.428408">
        <time>1970-01-01T00:00:00+00:00</time>
        <ele>19.0</ele>
      </trkpt>
      <trkpt lat="43.737912" lon="7.428292">
        <time>1970-01-01T00:00:00+00:00</time>
        <ele>20.0</ele>
      </trkpt>
      <trkpt lat="43.738189" lon="7.428093">
        <time>1970-01-01T00:00:00+00:00</time>
        <ele>30.0</ele>
      </trkpt>
      <trkpt lat="43.738123" lon="7.427936">
        <time>1970-01-01T00:00:00+00:00</time>
        <ele>27.0</ele>
      </trkpt>
      <trkpt lat="43.737987" lon="7.42774">
        <time>1970-01-01T00:00:00+00:00</time>
        <ele>20.0</ele>
      </trkpt>
      <trkpt lat="43.737817" lon="7.427283">
        <time>1970-01-01T00:00:00+00:00</time>
        <ele>20.0</ele>
      </trkpt>
      <trkpt lat="43.737801" lon="7.427161">
        <time>1970-01-01T00:00:00+00:00</time>
        <ele>22.0</ele>
      </trkpt>
      <trkpt lat="43.737749" lon="7.426981">
        <time>1970-01-01T00:00:00+00:00</time>
        <ele>22.0</ele>
      </trkpt>
      <trkpt lat="43.737735" lon="7.426927">
        <time>1970-01-01T00:00:00+00:00</time>
        <ele>22.0</ele>
      </trkpt>
      <trkpt lat="43.737759" lon="7.42677">
        <time>1970-01-01T00:00:00+00:00</time>
        <ele>28.0</ele>
      </trkpt>
      <trkpt lat="43.737766" lon="7.426656">
        <time>1970-01-01T00:00:00+00:00</time>
        <ele>30.0</ele>
      </trkpt>
      <trkpt lat="43.737719" lon="7.426522">
        <time>1970-01-01T00:00:00+00:00</time>
        <ele>29.0</ele>
      </trkpt>
      <trkpt lat="43.737695" lon="7.426486">
        <time>1970-01-01T00:00:00+00:00</time>
        <ele>28.0</ele>
      </trkpt>
      <trkpt lat="43.737622" lon="7.426265">
        <time>1970-01-01T00:00:00+00:00</time>
        <ele>24.0</ele>
      </trkpt>
      <trkpt lat="43.737614" lon="7.426158">
        <time>1970-01-01T00:00:00+00:00</time>
        <ele>24.0</ele>
      </trkpt>
      <trkpt lat="43.737583" lon="7.42573">
        <time>1970-01-01T00:00:00+00:00</time>
        <ele>22.0</ele>
      </trkpt>
      <trkpt lat="43.737532" lon="7.425553">
        <time>1970-01-01T00:00:00+00:00</time>
        <ele>19.0</ele>
      </trkpt>
      <trkpt lat="43.737529" lon="7.425436">
        <time>1970-01-01T00:00:00+00:00</time>
        <ele>19.0</ele>
      </trkpt>
      <trkpt lat="43.737546" lon="7.425392">
        <time>1970-01-01T00:00:00+00:00</time>
        <ele>21.0</ele>
      </trkpt>
      <trkpt lat="43.737519" lon="7.425303">
        <time>1970-01-01T00:00:00+00:00</time>
        <ele>19.0</ele>
      </trkpt>
      <trkpt lat="43.737449" lon="7.42512">
        <time>1970-01-01T00:00:00+00:00</time>
        <ele>16.0</ele>
      </trkpt>
      <trkpt lat="43.737438" lon="7.425084">
        <time>1970-01-01T00:00:00+00:00</time>
        <ele>15.0</ele>
      </trkpt>
      <trkpt lat="43.737397" lon="7.424866">
        <time>1970-01-01T00:00:00+00:00</time>
        <ele>15.0</ele>
      </trkpt>
      <trkpt lat="43.737333" lon="7.424233">
        <time>1970-01-01T00:00:00+00:00</time>
        <ele>10.0</ele>
      </trkpt>
      <trkpt lat="43.737193" lon="7.423521">
        <time>1970-01-01T00:00:00+00:00</time>
        <ele>5.0</ele>
      </trkpt>
      <trkpt lat="43.737056" lon="7.422849">
        <time>1970-01-01T00:00:00+00:00</time>
        <ele>3.0</ele>
      </trkpt>
      <trkpt lat="43.736973" lon="7.422093">
        <time>1970-01-01T00:00:00+00:00</time>
        <ele>5.0</ele>
      </trkpt>
      <trkpt lat="43.736956" lon="7.422095">
        <time>1970-01-01T00:00:00+00:00</time>
        <ele>5.0</ele>
      </trkpt>
      <trkpt lat="43.736945" lon="7.422028">
        <time>1970-01-01T00:00:00+00:00</time>
        <ele>5.0</ele>
      </trkpt>
      <trkpt lat="43.736936" lon="7.421969">
        <time>1970-01-01T00:00:00+00:00</time>
        <ele>5.0</ele>
      </trkpt>
      <trkpt lat="43.736817" lon="7.421996">
        <time>1970-01-01T00:00:00+00:00</time>
        <ele>2.0</ele>
      </trkpt>
      <trkpt lat="43.736798" lon="7.422013">
        <time>1970-01-01T00:00:00+00:00</time>
        <ele>2.0</ele>
      </trkpt>
      <trkpt lat="43.73675" lon="7.422055">
        <time>1970-01-01T00:00:00+00:00</time>
        <ele>1.0</ele>
      </trkpt>
      <trkpt lat="43.736765" lon="7.422115">
        <time>1970-01-01T00:00:00+00:00</time>
        <ele>1.0</ele>
      </trkpt>
      <trkpt lat="43.73674" lon="7.422167">
        <time>1970-01-01T00:00:00+00:00</time>
        <ele>0.0</ele>
      </trkpt>
      <trkpt lat="43.736549" lon="7.421999">
        <time>1970-01-01T00:00:00+00:00</time>
        <ele>0.0</ele>
      </trkpt>
      <trkpt lat="43.736389" lon="7.421901">
        <time>1970-01-01T00:00:00+00:00</time>
        <ele>0.0</ele>
      </trkpt>
      <trkpt lat="43.73617" lon="7.421806">
        <time>1970-01-01T00:00:00+00:00</time>
        <ele>0.0</ele>
      </trkpt>
      <trkpt lat="43.73596" lon="7.421761">
        <time>1970-01-01T00:00:00+00:00</time>
        <ele>1.0</ele>
      </trkpt>
      <trkpt lat="43.735817" lon="7.421753">
        <time>1970-01-01T00:00:00+00:00</time>
        <ele>1.0</ele>
      </trkpt>
      <trkpt lat="43.735512" lon="7.421792">
        <time>1970-01-01T00:00:00+00:00</time>
        <ele>1.0</ele>
      </trkpt>
      <trkpt lat="43.735383" lon="7.421808">
        <time>1970-01-01T00:00:00+00:00</time>
        <ele>1.0</ele>
      </trkpt>
      <trkpt lat="43.735275" lon="7.421868">
        <time>1970-01-01T00:00:00+00:00</time>
        <ele>1.0</ele>
      </trkpt>
      <trkpt lat="43.735062" lon="7.422161">
        <time>1970-01-01T00:00:00+00:00</time>
        <ele>1.0</ele>
      </trkpt>
      <trkpt lat="43.734948" lon="7.422256">
        <time>1970-01-01T00:00:00+00:00</time>
        <ele>0.0</ele>
      </trkpt>
      <trkpt lat="43.734698" lon="7.422318">
        <time>1970-01-01T00:00:00+00:00</time>
        <ele>1.0</ele>
      </trkpt>
      <trkpt lat="43.734671" lon="7.422443">
        <time>1970-01-01T00:00:00+00:00</time>
        <ele>1.0</ele>
      </trkpt>
      <trkpt lat="43.734612" lon="7.422455">
        <time>1970-01-01T00:00:00+00:00</time>
        <ele>0.0</ele>
      </trkpt>
      <trkpt lat="43.734458" lon="7.422455">
        <time>1970-01-01T00:00:00+00:00</time>
        <ele>0.0</ele>
      </trkpt>
      <trkpt lat="43.734184" lon="7.422529">
        <time>1970-01-01T00:00:00+00:00</time>
        <ele>0.0</ele>
      </trkpt>
      <trkpt lat="43.733606" lon="7.422703">
        <time>1970-01-01T00:00:00+00:00</time>
        <ele>0.0</ele>
      </trkpt>
      <trkpt lat="43.733428" lon="7.422809">
        <time>1970-01-01T00:00:00+00:00</time>
        <ele>0.0</ele>
      </trkpt>
      <trkpt lat="43.733258" lon="7.422985">
        <time>1970-01-01T00:00:00+00:00</time>
        <ele>0.0</ele>
      </trkpt>
      <trkpt lat="43.733155" lon="7.42315">
        <time>1970-01-01T00:00:00+00:00</time>
        <ele>0.0</ele>
      </trkpt>
      <trkpt lat="43.733072" lon="7.423352">
        <time>1970-01-01T00:00:00+00:00</time>
        <ele>0.0</ele>
      </trkpt>
      <trkpt lat="43.732743" lon="7.423486">
        <time>1970-01-01T00:00:00+00:00</time>
        <ele>2.0</ele>
      </trkpt>
      <trkpt lat="43.732728" lon="7.423495">
        <time>1970-01-01T00:00:00+00:00</time>
        <ele>2.0</ele>
      </trkpt>
      <trkpt lat="43.732733" lon="7.423526">
        <time>1970-01-01T00:00:00+00:00</time>
        <ele>2.0</ele>
      </trkpt>
      <trkpt lat="43.732949" lon="7.42456">
        <time>1970-01-01T00:00:00+00:00</time>
        <ele>2.0</ele>
      </trkpt>
      <trkpt lat="43.733058" lon="7.425087">
        <time>1970-01-01T00:00:00+00:00</time>
        <ele>2.0</ele>
      </trkpt>
      <trkpt lat="43.733104" lon="7.425311">
        <time>1970-01-01T00:00:00+00:00</time>
        <ele>2.0</ele>
      </trkpt>
      <trkpt lat="43.733076" lon="7.425357">
        <time>1970-01-01T00:00:00+00:00</time>
        <ele>2.0</ele>
      </trkpt>
      <trkpt lat="43.733163" lon="7.425854">
        <time>1970-01-01T00:00:00+00:00</time>
        <ele>2.0</ele>
      </trkpt>
      <trkpt lat="43.733409" lon="7.427026">
        <time>1970-01-01T00:00:00+00:00</time>
        <ele>2.0</ele>
      </trkpt>
      <trkpt lat="43.733465" lon="7.427075">
        <time>1970-01-01T00:00:00+00:00</time>
        <ele>3.0</ele>
      </trkpt>
      <trkpt lat="43.733521" lon="7.427337">
        <time>1970-01-01T00:00:00+00:00</time>
        <ele>6.0</ele>
      </trkpt>
      <trkpt lat="43.733595" lon="7.427711">
        <time>1970-01-01T00:00:00+00:00</time>
        <ele>4.0</ele>
      </trkpt>
      <trkpt lat="43.733578" lon="7.427768">
        <time>1970-01-01T00:00:00+00:00</time>
        <ele>3.0</ele>
      </trkpt>
      <trkpt lat="43.733366" lon="7.427856">
        <time>1970-01-01T00:00:00+00:00</time>
        <ele>8.0</ele>
      </trkpt>
      <trkpt lat="43.733342" lon="7.427966">
        <time>1970-01-01T00:00:00+00:00</time>
        <ele>7.0</ele>
      </trkpt>
      <trkpt lat="43.73329" lon="7.42804">
        <time>1970-01-01T00:00:00+00:00</time>
        <ele>8.0</ele>
      </trkpt>
      <trkpt lat="43.733278" lon="7.428101">
        <time>1970-01-01T00:00:00+00:00</time>
        <ele>7.0</ele>
      </trkpt>
      <trkpt lat="43.733265" lon="7.428102">
        <time>1970-01-01T00:00:00+00:00</time>
        <ele>7.0</ele>
      </trkpt>
      <trkpt lat="43.733255" lon="7.428225">
        <time>1970-01-01T00:00:00+00:00</time>
        <ele>5.0</ele>
      </trkpt>
      <trkpt lat="43.733251" lon="7.428494">
        <time>1970-01-01T00:00:00+00:00</time>
        <ele>1.0</ele>
      </trkpt>
      <trkpt lat="43.734346" lon="7.429731">
        <time>1970-01-01T00:00:00+00:00</time>
        <ele>0.0</ele>
      </trkpt>
      <trkpt lat="43.73448" lon="7.429692">
        <time>1970-01-01T00:00:00+00:00</time>
        <ele>0.0</ele>
      </trkpt>
    </trkseg>
  </trk>
</gpx>
